EW6014 Weather Reports


time (UTC)temp
C
wind
direction
speed
KPH
gust
KPH
rain 1hr
cm
rain 24hr
cm
rain mn
cm
humidity
%
barometer
mb
20260510000049 21 17 0.0 0.0 0.00 0.30 0.10 86 1010.9
20260510000030 21 0 0.0 0.0 0.00 0.30 0.10 85 1011.7
20260509234547 21 17 0.0 0.0 0.00 0.30 0.10 86 1011.0
20260509234538 21 0 0.0 1.6 0.00 0.30 0.10 85 1011.9
20260509233046 21 17 0.0 1.6 0.00 0.30 0.10 86 1010.9
20260509233032 21 0 0.0 4.8 0.00 0.30 0.10 85 1011.7
20260509231549 21 9 0.0 0.0 0.00 0.30 0.10 86 1011.0
20260509231535 21 0 0.0 0.0 0.00 0.30 0.10 85 1011.9
20260509230050 21 9 0.0 0.0 0.00 0.30 0.10 86 1010.6
20260509230031 21 0 0.0 0.0 0.00 0.30 0.10 85 1011.4
20260509224545 21 9 0.0 0.0 0.00 0.30 0.10 86 1010.7
20260509224533 21 0 0.0 0.0 0.00 0.30 0.10 85 1011.5
20260509223047 21 9 0.0 0.0 0.00 0.30 0.10 86 1010.6
20260509223031 21 0 0.0 0.0 0.00 0.30 0.10 85 1011.5
20260509221544 21 9 0.0 0.0 0.00 0.30 0.10 86 1010.4
20260509221530 21 0 0.0 0.0 0.00 0.30 0.10 85 1011.2
20260509220048 21 9 0.0 0.0 0.00 0.30 0.10 85 1010.8
20260509220030 21 0 0.0 0.0 0.00 0.30 0.10 84 1011.6
20260509214546 21 9 0.0 1.6 0.00 0.30 0.10 84 1010.7
20260509214531 21 0 0.0 1.6 0.00 0.30 0.10 84 1011.6
20260509213053 21 9 0.0 4.8 0.00 0.30 0.10 84 1011.0
20260509213030 21 0 0.0 4.8 0.00 0.30 0.10 83 1012.0
20260509211543 22 9 0.0 6.4 0.00 0.30 0.10 83 1011.3
20260509211528 22 0 1.6 6.4 0.00 0.30 0.10 82 1012.2
20260509210048 22 9 1.6 8.0 0.00 0.30 0.10 82 1010.9
20260509210030 22 9 0.0 8.0 0.00 0.30 0.10 82 1011.8
20260509204541 22 9 1.6 4.8 0.00 0.30 0.10 82 1010.9
20260509204530 22 9 1.6 4.8 0.00 0.30 0.10 81 1011.7
20260509203041 22 9 4.8 9.7 0.00 0.30 0.10 81 1011.0
20260509203039 22 9 3.2 11.3 0.00 0.30 0.10 81 1011.9
20260509201541 22 9 4.8 9.7 0.00 0.30 0.10 80 1011.0
20260509201530 22 9 4.8 11.3 0.00 0.30 0.10 80 1011.8
20260509200047 22 9 3.2 8.0 0.03 0.30 0.10 79 1010.9
20260509200029 22 9 3.2 8.0 0.03 0.30 0.10 78 1011.8
20260509194552 23 9 1.6 8.0 0.03 0.30 0.10 78 1011.0
20260509194531 23 9 3.2 8.0 0.03 0.30 0.10 78 1011.9
20260509193040 22 11 0.0 1.6 0.03 0.30 0.10 78 1010.5
20260509193037 22 0 0.0 1.6 0.03 0.30 0.10 77 1011.4
20260509191538 23 13 0.0 4.8 0.03 0.30 0.10 79 1010.5
20260509190040 23 13 0.0 1.6 0.00 0.28 0.08 77 1010.9
20260509190029 23 0 0.0 1.6 0.00 0.28 0.08 77 1011.8
20260509184538 24 0 0.0 1.6 0.00 0.28 0.08 74 1011.9
20260509183036 25 14 0.0 3.2 0.00 0.28 0.08 73 1011.1
20260509183032 25 0 0.0 3.2 0.00 0.28 0.08 72 1012.0
20260509181537 25 19 0.0 4.8 0.00 0.28 0.08 70 1011.3
20260509181529 25 0 0.0 4.8 0.00 0.28 0.08 70 1012.1
20260509180049 25 9 0.0 6.4 0.00 0.28 0.08 69 1011.3
20260509180032 25 0 0.0 6.4 0.00 0.28 0.08 69 1012.2
20260509174537 25 9 1.6 6.4 0.00 0.28 0.08 69 1011.3
20260509174531 25 9 1.6 6.4 0.00 0.28 0.08 68 1012.2
20260509173051 26 9 1.6 4.8 0.00 0.28 0.08 67 1011.3
20260509173029 26 0 0.0 4.8 0.00 0.28 0.08 66 1012.2
20260509171634 26 9 0.0 4.8 0.00 0.28 0.08 67 1011.4
20260509171531 26 9 0.0 4.8 0.00 0.28 0.08 67 1012.1
20260509170037 26 0 0.0 3.2 0.00 0.28 0.08 66 1012.3
20260509170034 26 11 0.0 3.2 0.00 0.28 0.08 66 1011.4
20260509164536 26 0 0.0 4.8 0.00 0.28 0.08 70 1012.4
20260509164531 26 12 0.0 4.8 0.00 0.28 0.08 70 1011.6
20260509163033 26 0 0.0 8.0 0.00 0.28 0.08 70 1012.5
20260509161534 25 9 0.0 3.2 0.00 0.28 0.08 76 1012.6
20260509161527 25 9 1.6 3.2 0.00 0.28 0.08 76 1011.8
20260509160036 24 13 0.0 6.4 0.00 0.28 0.08 77 1012.7
20260509160024 24 13 0.0 6.4 0.00 0.28 0.08 78 1011.8
20260509154528 23 0 0.0 0.0 0.00 0.28 0.08 80 1012.9
20260509154519 23 16 0.0 0.0 0.00 0.28 0.08 80 1012.1
20260509153038 23 0 0.0 1.6 0.00 0.28 0.08 81 1012.9
20260509153029 23 17 0.0 1.6 0.00 0.28 0.08 81 1012.2
20260509151530 22 0 0.0 4.8 0.00 0.28 0.08 83 1013.0
20260509151513 22 35 0.0 4.8 0.00 0.28 0.08 83 1012.2
20260509150031 22 0 0.0 1.6 0.00 0.28 0.08 84 1013.1
20260509150015 22 36 0.0 1.6 0.00 0.28 0.08 84 1012.4
20260509144532 22 24 0.0 4.8 0.00 0.28 0.08 84 1013.1
20260509144510 22 24 0.0 3.2 0.00 0.28 0.08 85 1012.4
20260509143031 22 0 0.0 1.6 0.00 0.28 0.08 89 1013.3
20260509143009 22 16 0.0 1.6 0.00 0.28 0.08 89 1012.5
20260509141531 21 0 0.0 3.2 0.00 0.28 0.08 91 1013.0
20260509141506 21 16 0.0 3.2 0.00 0.28 0.08 91 1012.2
20260509140032 21 0 0.0 3.2 0.00 0.28 0.08 93 1013.0
20260509140006 21 35 0.0 3.2 0.00 0.28 0.08 93 1012.1
20260509134531 21 0 0.0 0.0 0.00 0.28 0.08 94 1013.0
20260509134505 21 32 0.0 0.0 0.00 0.28 0.08 95 1012.1
20260509133100 21 24 0.0 0.0 0.00 0.28 0.08 95 1012.1
20260509133029 21 0 0.0 0.0 0.00 0.28 0.08 94 1013.0
20260509131600 21 45 0.0 0.0 0.00 0.28 0.08 95 1012.1
20260509131534 21 0 0.0 0.0 0.00 0.28 0.08 95 1012.9
20260509130059 21 38 0.0 0.0 0.00 0.28 0.08 95 1012.4
20260509130032 21 0 0.0 0.0 0.00 0.28 0.08 95 1013.2
20260509124558 21 60 0.0 0.0 0.00 0.28 0.08 95 1012.2
20260509124530 21 0 0.0 0.0 0.00 0.28 0.08 95 1013.1
20260509123058 21 54 0.0 0.0 0.00 0.28 0.08 96 1012.0
20260509123029 21 0 0.0 0.0 0.00 0.28 0.08 95 1012.7
20260509121558 20 42 0.0 6.4 0.00 0.28 0.08 96 1011.6
20260509121531 20 0 0.0 4.8 0.00 0.28 0.08 95 1012.4
20260509120055 20 17 0.0 0.0 0.00 0.28 0.08 95 1011.7
20260509120036 20 0 0.0 0.0 0.00 0.28 0.08 94 1012.5
20260509114551 19 17 0.0 0.0 0.00 0.28 0.08 94 1011.7
20260509114533 19 0 0.0 0.0 0.00 0.28 0.08 94 1012.4
20260509113050 19 11 0.0 0.0 0.00 0.28 0.08 94 1011.5
20260509113032 19 0 0.0 0.0 0.00 0.28 0.08 94 1012.4
20260509111553 19 14 0.0 0.0 0.00 0.28 0.08 94 1011.4
20260509111531 19 0 0.0 0.0 0.00 0.28 0.08 94 1012.1
20260509110049 19 15 0.0 0.0 0.00 0.28 0.08 94 1011.5
20260509110035 19 0 0.0 0.0 0.00 0.28 0.08 93 1012.3
20260509104553 19 15 0.0 0.0 0.00 0.28 0.08 94 1011.1
20260509104533 19 0 0.0 0.0 0.00 0.28 0.08 93 1011.8
20260509103052 19 17 0.0 0.0 0.00 0.28 0.08 93 1010.7
20260509103034 19 0 0.0 0.0 0.00 0.28 0.08 93 1011.6
20260509101545 19 17 0.0 0.0 0.00 0.28 0.08 93 1010.7
20260509101543 19 0 0.0 0.0 0.00 0.28 0.08 93 1011.5
20260509100044 19 19 0.0 0.0 0.00 0.28 0.08 93 1010.7
20260509100030 19 0 0.0 0.0 0.00 0.28 0.08 93 1011.5
20260509094554 19 18 0.0 0.0 0.00 0.28 0.08 93 1010.7
20260509094531 19 0 0.0 0.0 0.00 0.28 0.08 93 1011.5
20260509093043 19 19 0.0 0.0 0.00 0.28 0.08 93 1010.6
20260509093030 19 0 0.0 0.0 0.00 0.28 0.08 92 1011.4
20260509091549 19 22 0.0 0.0 0.00 0.28 0.08 92 1010.7
20260509091534 19 0 0.0 0.0 0.00 0.28 0.08 92 1011.5
20260509090052 19 22 0.0 4.8 0.00 0.28 0.08 92 1010.9
20260509090030 19 0 0.0 4.8 0.00 0.28 0.08 92 1011.9
20260509084542 19 23 0.0 0.0 0.00 0.28 0.08 92 1011.2
20260509084531 19 0 0.0 0.0 0.00 0.28 0.08 92 1012.1
20260509083042 19 22 0.0 0.0 0.00 0.28 0.08 92 1011.0
20260509083033 19 0 0.0 0.0 0.00 0.28 0.08 91 1011.9
20260509081538 19 22 0.0 0.0 0.00 0.28 0.08 92 1010.8
20260509081528 19 0 0.0 0.0 0.00 0.28 0.08 91 1011.6
20260509080045 19 21 0.0 4.8 0.00 0.28 0.08 91 1011.4
20260509080033 19 0 0.0 4.8 0.00 0.28 0.08 91 1012.3
20260509074547 18 22 0.0 0.0 0.00 0.28 0.08 91 1011.2
20260509074530 18 0 0.0 0.0 0.00 0.28 0.08 91 1012.0
20260509073049 18 0 0.0 0.0 0.00 0.28 0.08 90 1012.2
20260509073045 18 22 0.0 0.0 0.00 0.28 0.08 90 1011.3
20260509071535 18 23 0.0 0.0 0.00 0.28 0.08 90 1011.3
20260509071532 18 0 0.0 0.0 0.00 0.28 0.08 90 1012.2
20260509070032 18 22 0.0 0.0 0.00 0.28 0.08 90 1011.3
20260509070029 18 0 0.0 0.0 0.00 0.28 0.08 90 1012.1
20260509064530 18 23 0.0 0.0 0.00 0.28 0.08 90 1011.7
20260509064528 18 0 0.0 0.0 0.00 0.28 0.08 89 1012.5
20260509063031 18 23 0.0 0.0 0.00 0.28 0.08 90 1012.1
20260509061529 18 0 0.0 1.6 0.00 0.28 0.08 89 1013.1
20260509060037 18 25 3.2 4.8 0.00 0.28 0.08 89 1013.1
20260509060030 18 24 3.2 6.4 0.00 0.28 0.08 89 1012.3
20260509054528 18 0 0.0 0.0 0.03 0.28 0.08 88 1012.5
20260509054526 18 105 0.0 0.0 0.03 0.28 0.08 89 1011.8
20260509053034 18 101 0.0 0.0 0.03 0.28 0.08 88 1012.1
20260509051529 18 0 0.0 0.0 0.03 0.28 0.08 88 1013.5
20260509051522 18 95 0.0 0.0 0.03 0.28 0.08 88 1012.8
20260509050031 18 0 0.0 0.0 0.08 0.28 0.08 87 1013.5
20260509050022 18 108 0.0 0.0 0.08 0.28 0.08 88 1012.9
20260509044535 18 0 0.0 0.0 0.08 0.25 0.05 87 1013.3
20260509044520 18 19 0.0 0.0 0.08 0.25 0.05 88 1012.5
20260509043037 18 19 0.0 0.0 0.13 0.25 0.05 87 1013.1
20260509043035 18 0 0.0 0.0 0.13 0.25 0.05 87 1013.8
20260509041528 18 0 0.0 0.0 0.15 0.25 0.05 87 1013.7
20260509041517 18 17 0.0 0.0 0.15 0.25 0.05 87 1012.9
20260509040029 18 0 0.0 0.0 0.15 0.20 0.00 86 1013.6
20260509040013 18 17 0.0 0.0 0.15 0.20 0.20 86 1012.9
20260509034541 18 0 0.0 0.0 0.18 0.18 0.18 85 1014.6
20260509034513 18 17 0.0 0.0 0.18 0.18 0.18 85 1013.9
20260509033030 19 0 0.0 6.4 0.13 0.13 0.13 84 1014.8
20260509033012 19 16 0.0 6.4 0.13 0.13 0.13 85 1014.1
20260509031532 19 0 0.0 0.0 0.10 0.10 0.10 84 1014.5
20260509031513 19 16 0.0 0.0 0.10 0.10 0.10 84 1013.7
20260509030028 20 0 0.0 1.6 0.05 0.05 0.05 82 1015.5
20260509030010 20 17 0.0 1.6 0.05 0.05 0.05 83 1014.6
20260509024529 20 0 0.0 0.0 0.00 0.00 0.00 81 1015.5
20260509024510 20 10 0.0 0.0 0.00 0.00 0.00 82 1014.8
20260509023032 20 0 0.0 0.0 0.00 0.00 0.00 80 1015.9
20260509023009 20 9 0.0 0.0 0.00 0.00 0.00 80 1015.0
20260509021534 20 0 0.0 0.0 0.00 0.00 0.00 79 1015.8
20260509021509 20 9 0.0 0.0 0.00 0.00 0.00 79 1015.0
20260509020028 20 0 0.0 0.0 0.00 0.00 0.00 77 1015.5
20260509020009 20 9 0.0 0.0 0.00 0.00 0.00 78 1014.7
20260509014529 20 0 0.0 0.0 0.00 0.00 0.00 77 1015.2
20260509014518 20 10 0.0 0.0 0.00 0.00 0.00 77 1014.5
20260509013030 20 0 0.0 0.0 0.00 0.00 0.00 77 1014.6
20260509013007 20 11 0.0 0.0 0.00 0.00 0.00 77 1013.7
20260509011528 20 0 0.0 0.0 0.00 0.00 0.00 76 1014.3
20260509011508 20 12 0.0 0.0 0.00 0.00 0.00 76 1013.5
20260509010035 20 0 0.0 0.0 0.00 0.00 0.00 74 1014.4
20260509010006 20 15 0.0 0.0 0.00 0.00 0.00 74 1013.7
20260509004530 20 0 0.0 0.0 0.00 0.00 0.00 73 1014.4
20260509004507 20 14 0.0 0.0 0.00 0.00 0.00 74 1013.6
20260509003032 20 0 0.0 0.0 0.00 0.00 0.00 73 1014.3
20260509003006 20 9 0.0 0.0 0.00 0.00 0.00 74 1013.5
20260509001529 20 0 0.0 1.6 0.00 0.00 0.00 72 1014.2
20260509001508 20 9 0.0 1.6 0.00 0.00 0.00 72 1013.4